Погода в Красноармейске

Россия / Московская область     56°07′15″N   38°08′27″E
темп.,
°C
ветер,
м/с
пор.,
м/с
влажн.,
%
обл.,
%
осадки,
мм/ч
давл.,
гПа
погр.,
м
29 ноября, пн
пн2900:00−2ю1298100 0.0 101042
03:00−1юв2397100 0.0 101069
06:000вюв3890100 0.0 1008245
09:00+2юв41196100 0.1 1006341
12:00+3вюв399597 0.0 1004331
15:00+3вюв31098100 0.1 1001335
18:00+3вюв41198100 0.1 998467
21:00+3вюв41198100 0.2 993454
30 ноября, вт
вт3000:00+3в51398100 0.2 987519
03:00+5в61497100 4.3 979576
06:00+7вюв51397100 3.9 971693
09:00+7ююз71392100 6.4 970823
12:00+2юз101895100 0.4 973953
15:00+1юз91784100 0.6 9741206
18:00−1юз81690100 0.8 9761234
21:00−2юз81691100 2.6 9791206
1 декабря, ср
ср100:00−3зюз81480100 0.6 9811086
03:00−3зюз61392100 0.9 9851280
06:00−2зюз61283100 0.6 9851177
09:00−3зюз51085100 0.9 988987
12:00−2зюз5973100 0.1 9891125
15:00−3з5983100 0.2 990944
18:00−4з4987100 0.5 991959
21:00−5з5980100 0.8 993812
2 декабря, чт
чт200:00−7з5108398 0.0 996660
03:00−7з498663 0.0 998495
06:00−8зюз3987100 0.0 999411
09:00−7юз3884100 0.0 1001353
12:00−4ю4775100 0.0 1000388
15:00−3ю51174100 0.0 999751
18:00−3ю51295100 1.3 997575
21:00−1ююз41396100 2.8 996617
3 декабря, пт
пт300:00+1юз51297100 0.3 997615
03:00+1юз51197100 0.4 998854
06:00+1ююз51293100 0.1 999712
09:00+2ююз51290100 0.1 1000823
12:00+2ююз41089100 0.0 1001652
15:00+1ю3896100 0.1 1001391
18:000ююв25100100 2.3 1000349
21:000ю1499100 4.6 998338